CFG7DH EDDM-LGPZ

Flight info

Callsign CFG7DH
Flight time 1h 40m
Altitude 33000
Route VAVOR3S VAVOR M867 RADIZ DCT REKTI/N0445F370 DCT NAVSU DCT TAZ DCT RODON DCT LIMJA DCT PITAS N732 KRK M127 MALED
Aircraft A320/M-SDE2FGHIJ1RWXY/LB1

Departure

Time 2026-05-05 16:02
Airport Munich Airport (EDDM)

Arrival

Time 2026-05-05 17:42
Airport Aktion National Airport (LGPZ)
Time Latitude Longitude Altitude Speed Heading
2026-05-05 15:02 48.35131 11.78343 1479 ft 0 kts 83°
2026-05-05 15:52 48.35128 11.78307 1480 ft 4 kts 83°
2026-05-05 15:53 48.35126 11.78274 1472 ft 4 kts 80°
2026-05-05 15:53 48.35116 11.78244 1476 ft 4 kts 19°
2026-05-05 15:53 48.35092 11.78242 1478 ft 3 kts 353°
2026-05-05 15:53 48.35074 11.78245 1474 ft 0 kts 353°
2026-05-05 15:55 48.35087 11.78243 1477 ft 5 kts 353°
2026-05-05 15:55 48.35141 11.78233 1474 ft 8 kts 353°
2026-05-05 15:56 48.35191 11.78210 1473 ft 7 kts 319°
2026-05-05 15:56 48.35202 11.78138 1482 ft 9 kts 265°
2026-05-05 15:56 48.35193 11.78030 1480 ft 12 kts 263°
2026-05-05 15:56 48.35182 11.77892 1476 ft 14 kts 257°
2026-05-05 15:57 48.35108 11.77824 1480 ft 14 kts 176°
2026-05-05 15:57 48.35007 11.77841 1477 ft 15 kts 173°
2026-05-05 15:57 48.34898 11.77861 1481 ft 16 kts 173°
2026-05-05 15:57 48.34786 11.77880 1480 ft 17 kts 173°
2026-05-05 15:58 48.34677 11.77933 1477 ft 17 kts 123°
2026-05-05 15:58 48.34679 11.78101 1485 ft 17 kts 83°
2026-05-05 15:58 48.34695 11.78300 1485 ft 20 kts 80°
2026-05-05 15:58 48.34711 11.78514 1478 ft 22 kts 84°
2026-05-05 15:59 48.34729 11.78742 1483 ft 22 kts 83°
2026-05-05 15:59 48.34746 11.78974 1485 ft 22 kts 82°
2026-05-05 15:59 48.34765 11.79210 1485 ft 23 kts 84°
2026-05-05 15:59 48.34782 11.79452 1472 ft 23 kts 83°
2026-05-05 16:00 48.34801 11.79698 1480 ft 24 kts 83°
2026-05-05 16:00 48.34821 11.79945 1485 ft 22 kts 83°
2026-05-05 16:00 48.34822 11.80132 1479 ft 16 kts 111°
2026-05-05 16:00 48.34738 11.80240 1477 ft 17 kts 169°
2026-05-05 16:01 48.34621 11.80261 1473 ft 17 kts 174°
2026-05-05 16:01 48.34499 11.80267 1480 ft 18 kts 201°
2026-05-05 16:01 48.34445 11.80038 1485 ft 42 kts 263°
2026-05-05 16:01 48.34388 11.79272 1485 ft 105 kts 263°
2026-05-05 16:02 48.34282 11.77907 1486 ft 156 kts 263°
2026-05-05 16:02 48.34150 11.76143 1847 ft 171 kts 260°
2026-05-05 16:02 48.34017 11.74387 2607 ft 169 kts 265°
2026-05-05 16:02 48.33862 11.72585 3057 ft 184 kts 258°
2026-05-05 16:03 48.33084 11.70939 3267 ft 214 kts 214°
2026-05-05 16:03 48.31594 11.70307 3672 ft 232 kts 188°
2026-05-05 16:03 48.29956 11.70255 4301 ft 237 kts 180°
2026-05-05 16:03 48.28361 11.70933 4989 ft 245 kts 152°
2026-05-05 16:04 48.26937 11.72507 5372 ft 266 kts 144°
2026-05-05 16:04 48.25399 11.74206 5926 ft 279 kts 146°
2026-05-05 16:04 48.23800 11.75873 6784 ft 280 kts 148°
2026-05-05 16:04 48.22190 11.77511 7651 ft 280 kts 148°
2026-05-05 16:05 48.20645 11.79304 8500 ft 282 kts 143°
2026-05-05 16:05 48.19145 11.81217 9318 ft 285 kts 142°
2026-05-05 16:05 48.17645 11.83180 10069 ft 289 kts 142°
2026-05-05 16:05 48.16075 11.85242 10324 ft 312 kts 141°
2026-05-05 16:06 48.14382 11.87457 10512 ft 334 kts 141°
2026-05-05 16:06 48.12605 11.89781 11025 ft 343 kts 141°
2026-05-05 16:06 48.10795 11.92148 11679 ft 348 kts 141°
2026-05-05 16:06 48.08963 11.94539 12347 ft 352 kts 142°
2026-05-05 16:07 48.07103 11.96952 13018 ft 356 kts 142°
2026-05-05 16:07 48.05219 11.99391 13650 ft 360 kts 142°
2026-05-05 16:07 48.03320 12.01851 14269 ft 362 kts 142°
2026-05-05 16:07 48.01407 12.04323 14881 ft 365 kts 142°
2026-05-05 16:08 47.99478 12.06813 15486 ft 368 kts 142°
2026-05-05 16:08 47.97535 12.09319 16085 ft 370 kts 142°
2026-05-05 16:08 47.95578 12.11836 16693 ft 373 kts 142°
2026-05-05 16:08 47.93605 12.14368 17292 ft 376 kts 142°
2026-05-05 16:09 47.91619 12.16916 17898 ft 378 kts 142°
2026-05-05 16:09 47.89619 12.19484 18447 ft 381 kts 142°
2026-05-05 16:09 47.87607 12.22067 18973 ft 383 kts 142°
2026-05-05 16:09 47.85584 12.24662 19521 ft 385 kts 142°
2026-05-05 16:10 47.83552 12.27265 20044 ft 387 kts 142°
2026-05-05 16:10 47.81506 12.29883 20577 ft 389 kts 142°
2026-05-05 16:10 47.79446 12.32513 21103 ft 391 kts 142°
2026-05-05 16:10 47.77374 12.35154 21619 ft 394 kts 143°
2026-05-05 16:11 47.75288 12.37807 22120 ft 396 kts 143°
2026-05-05 16:11 47.68950 12.45860 23544 ft 403 kts 143°
2026-05-05 16:12 47.66810 12.48571 23945 ft 405 kts 143°
2026-05-05 16:12 47.62500 12.54026 24699 ft 409 kts 143°
2026-05-05 16:13 47.56076 12.62539 25781 ft 417 kts 141°
2026-05-05 16:13 47.53935 12.65447 26135 ft 419 kts 141°
2026-05-05 16:13 47.51783 12.68358 26526 ft 420 kts 141°
2026-05-05 16:14 47.47416 12.74207 27048 ft 426 kts 142°
2026-05-05 16:14 47.42974 12.80094 27685 ft 431 kts 142°
2026-05-05 16:15 47.38487 12.86025 28277 ft 435 kts 142°
2026-05-05 16:15 47.33992 12.91969 28808 ft 439 kts 142°
2026-05-05 16:16 47.29400 12.98031 29383 ft 441 kts 142°
2026-05-05 16:16 47.24849 13.04018 29866 ft 444 kts 142°
2026-05-05 16:17 47.20223 13.10094 30238 ft 447 kts 142°
2026-05-05 16:17 47.17898 13.13140 30470 ft 448 kts 142°
2026-05-05 16:18 47.13243 13.19221 30980 ft 448 kts 142°
2026-05-05 16:18 47.10910 13.22264 31275 ft 449 kts 142°
2026-05-05 16:18 47.06230 13.28350 31690 ft 451 kts 142°
2026-05-05 16:19 47.03878 13.31408 31863 ft 453 kts 142°
2026-05-05 16:19 47.01520 13.34472 32130 ft 454 kts 142°
2026-05-05 16:19 46.96798 13.40605 32614 ft 454 kts 142°
2026-05-05 16:20 46.92066 13.46737 32935 ft 455 kts 142°
2026-05-05 16:20 46.87325 13.52855 32941 ft 454 kts 143°
2026-05-05 16:22 46.75409 13.68148 32965 ft 460 kts 143°
2026-05-05 16:22 46.70589 13.74305 33474 ft 461 kts 143°
2026-05-05 16:23 46.65755 13.80461 33981 ft 462 kts 143°
2026-05-05 16:23 46.63337 13.83538 34203 ft 462 kts 143°
2026-05-05 16:23 46.58518 13.89717 34629 ft 463 kts 139°
2026-05-05 16:24 46.56292 13.93128 34805 ft 466 kts 136°
2026-05-05 16:24 46.54090 13.96578 35004 ft 466 kts 136°
2026-05-05 16:24 46.49676 14.03451 35390 ft 465 kts 137°
2026-05-05 16:25 46.47470 14.06868 35603 ft 464 kts 137°
2026-05-05 16:25 46.43060 14.13686 36013 ft 463 kts 137°
2026-05-05 16:25 46.40856 14.17085 36228 ft 462 kts 137°
2026-05-05 16:26 46.36454 14.23874 36553 ft 463 kts 136°
2026-05-05 16:26 46.32049 14.30664 36897 ft 462 kts 136°
2026-05-05 16:27 46.27638 14.37436 37002 ft 462 kts 136°
2026-05-05 16:27 46.23222 14.44187 37002 ft 462 kts 137°
2026-05-05 16:28 46.18801 14.50927 36992 ft 462 kts 136°
2026-05-05 16:28 46.14373 14.57680 37003 ft 464 kts 136°
2026-05-05 16:29 46.09937 14.64432 37003 ft 464 kts 136°
2026-05-05 16:29 46.05490 14.71177 37007 ft 464 kts 136°
2026-05-05 16:30 46.01034 14.77901 37000 ft 464 kts 136°
2026-05-05 16:30 45.96574 14.84624 36996 ft 465 kts 136°
2026-05-05 16:31 45.92111 14.91346 36993 ft 465 kts 136°
2026-05-05 16:31 45.87637 14.98061 36994 ft 465 kts 136°
2026-05-05 16:32 45.83160 15.04774 36989 ft 465 kts 137°
2026-05-05 16:32 45.78677 15.11469 36981 ft 466 kts 137°
2026-05-05 16:33 45.74184 15.18158 36975 ft 466 kts 137°
2026-05-05 16:33 45.69685 15.24847 36986 ft 466 kts 137°
2026-05-05 16:34 45.65183 15.31527 36979 ft 467 kts 137°
2026-05-05 16:34 45.60671 15.38195 36987 ft 467 kts 137°
2026-05-05 16:35 45.56150 15.44848 36982 ft 467 kts 137°
2026-05-05 16:35 45.52395 15.50379 36993 ft 467 kts 137°
2026-05-05 16:36 45.47140 15.58106 36981 ft 467 kts 137°
2026-05-05 16:36 45.43348 15.63667 36992 ft 467 kts 137°
2026-05-05 16:37 45.38807 15.70290 36994 ft 468 kts 137°
2026-05-05 16:37 45.34262 15.76911 36996 ft 468 kts 137°
2026-05-05 16:38 45.29716 15.83525 37006 ft 468 kts 137°
2026-05-05 16:38 45.25162 15.90120 37008 ft 468 kts 137°
2026-05-05 16:39 45.20606 15.96709 37005 ft 468 kts 137°
2026-05-05 16:39 45.16048 16.03295 37005 ft 468 kts 137°
2026-05-05 16:40 45.11482 16.09883 37000 ft 469 kts 137°
2026-05-05 16:40 45.06907 16.16459 37002 ft 469 kts 137°
2026-05-05 16:41 45.02322 16.23025 37001 ft 469 kts 137°
2026-05-05 16:41 44.97732 16.29574 36982 ft 469 kts 137°
2026-05-05 16:42 44.93134 16.36133 36989 ft 470 kts 137°
2026-05-05 16:42 44.88563 16.42644 36998 ft 470 kts 137°
2026-05-05 16:43 44.83954 16.49190 37001 ft 470 kts 138°
2026-05-05 16:43 44.79302 16.55761 37008 ft 471 kts 137°
2026-05-05 16:44 44.74712 16.62246 36988 ft 471 kts 137°
2026-05-05 16:44 44.70090 16.68771 36992 ft 471 kts 138°
2026-05-05 16:45 44.65457 16.75285 37003 ft 471 kts 138°
2026-05-05 16:45 44.60813 16.81794 37006 ft 471 kts 138°
2026-05-05 16:46 44.56160 16.88285 37015 ft 471 kts 140°
2026-05-05 16:46 44.50898 16.93608 37013 ft 466 kts 152°
2026-05-05 16:47 44.45393 16.98402 37008 ft 466 kts 152°
2026-05-05 16:47 44.39881 17.03208 37020 ft 467 kts 152°
2026-05-05 16:48 44.34359 17.08009 37030 ft 468 kts 152°
2026-05-05 16:48 44.28831 17.12809 37030 ft 468 kts 152°
2026-05-05 16:49 44.23287 17.17609 37027 ft 469 kts 152°
2026-05-05 16:49 44.17730 17.22404 37035 ft 470 kts 152°
2026-05-05 16:50 44.12167 17.27208 37047 ft 470 kts 152°
2026-05-05 16:50 44.06601 17.32005 37049 ft 471 kts 152°
2026-05-05 16:51 44.01026 17.36798 37039 ft 472 kts 152°
2026-05-05 16:51 43.95434 17.41583 37054 ft 472 kts 152°
2026-05-05 16:52 43.89837 17.46359 37060 ft 472 kts 152°
2026-05-05 16:52 43.84237 17.51135 37073 ft 473 kts 152°
2026-05-05 16:53 43.78636 17.55902 37067 ft 473 kts 152°
2026-05-05 16:53 43.73020 17.60663 37073 ft 473 kts 152°
2026-05-05 16:54 43.67403 17.65422 37084 ft 474 kts 152°
2026-05-05 16:54 43.61784 17.70178 37086 ft 474 kts 152°
2026-05-05 16:55 43.56160 17.74911 37094 ft 474 kts 152°
2026-05-05 16:55 43.50525 17.79636 37090 ft 474 kts 152°
2026-05-05 16:56 43.44884 17.84367 37085 ft 475 kts 152°
2026-05-05 16:56 43.39242 17.89101 37089 ft 475 kts 152°
2026-05-05 16:57 43.33631 17.93795 37093 ft 475 kts 152°
2026-05-05 16:57 43.27979 17.98508 37095 ft 475 kts 152°
2026-05-05 16:58 43.22330 18.03218 37097 ft 475 kts 152°
2026-05-05 16:58 43.16673 18.07910 37101 ft 475 kts 152°
2026-05-05 16:59 43.11017 18.12591 37094 ft 475 kts 153°
2026-05-05 16:59 43.05356 18.17271 37101 ft 475 kts 153°
2026-05-05 17:00 42.99698 18.21944 37105 ft 475 kts 153°
2026-05-05 17:00 42.94034 18.26603 37102 ft 475 kts 153°
2026-05-05 17:01 42.88371 18.31251 37104 ft 475 kts 153°
2026-05-05 17:01 42.82702 18.35896 37104 ft 475 kts 153°
2026-05-05 17:02 42.77034 18.40530 37100 ft 475 kts 153°
2026-05-05 17:02 42.71359 18.45160 37092 ft 476 kts 153°
2026-05-05 17:03 42.65679 18.49790 37083 ft 476 kts 153°
2026-05-05 17:03 42.59986 18.54417 37083 ft 477 kts 153°
2026-05-05 17:04 42.54284 18.59030 37108 ft 477 kts 153°
2026-05-05 17:04 42.48576 18.63641 37099 ft 477 kts 153°
2026-05-05 17:05 42.42871 18.68250 37115 ft 478 kts 153°
2026-05-05 17:05 42.37157 18.72857 37113 ft 478 kts 153°
2026-05-05 17:06 42.31441 18.77454 37093 ft 478 kts 153°
2026-05-05 17:06 42.25443 18.81084 37066 ft 469 kts 169°
2026-05-05 17:07 42.19134 18.83376 37071 ft 470 kts 170°
2026-05-05 17:07 42.12811 18.85692 37071 ft 471 kts 169°
2026-05-05 17:08 42.06481 18.88024 37082 ft 472 kts 169°
2026-05-05 17:08 42.00142 18.90349 37061 ft 472 kts 169°
2026-05-05 17:09 41.93840 18.92649 37071 ft 473 kts 169°
2026-05-05 17:09 41.87445 18.94973 37077 ft 473 kts 169°
2026-05-05 17:10 41.81088 18.97282 37072 ft 473 kts 169°
2026-05-05 17:10 41.74769 18.99573 37080 ft 474 kts 169°
2026-05-05 17:11 41.68399 19.01883 37087 ft 474 kts 169°
2026-05-05 17:11 41.62026 19.04188 37077 ft 474 kts 169°
2026-05-05 17:12 41.55651 19.06480 37078 ft 475 kts 169°
2026-05-05 17:12 41.49269 19.08777 37084 ft 475 kts 169°
2026-05-05 17:13 41.42950 19.11417 37087 ft 478 kts 164°
2026-05-05 17:13 41.36703 19.14486 37082 ft 479 kts 163°
2026-05-05 17:14 41.30435 19.17546 37078 ft 480 kts 163°
2026-05-05 17:14 41.24162 19.20594 37080 ft 481 kts 163°
2026-05-05 17:15 41.17877 19.23647 37084 ft 481 kts 163°
2026-05-05 17:15 41.11595 19.26703 37093 ft 481 kts 163°
2026-05-05 17:16 41.05304 19.29746 37090 ft 481 kts 164°
2026-05-05 17:16 40.99013 19.32781 37100 ft 481 kts 163°
2026-05-05 17:17 40.92723 19.35816 37092 ft 481 kts 163°
2026-05-05 17:17 40.86435 19.38846 37098 ft 481 kts 163°
2026-05-05 17:18 40.80148 19.41880 37101 ft 481 kts 163°
2026-05-05 17:18 40.73858 19.44893 37103 ft 481 kts 164°
2026-05-05 17:19 40.67570 19.47888 37100 ft 481 kts 164°
2026-05-05 17:19 40.61275 19.50891 37095 ft 481 kts 164°
2026-05-05 17:20 40.54981 19.53891 37112 ft 481 kts 164°
2026-05-05 17:20 40.49993 19.57141 37105 ft 488 kts 142°
2026-05-05 17:21 40.47633 19.60335 37100 ft 490 kts 125°
2026-05-05 17:21 40.45924 19.64196 37094 ft 489 kts 116°
2026-05-05 17:21 40.44426 19.68201 36975 ft 489 kts 115°
2026-05-05 17:22 40.41452 19.76271 35427 ft 494 kts 115°
2026-05-05 17:22 40.39941 19.80339 34618 ft 497 kts 116°
2026-05-05 17:22 40.38091 19.84171 33761 ft 500 kts 131°
2026-05-05 17:22 40.35540 19.87258 32820 ft 499 kts 149°
2026-05-05 17:23 40.32482 19.89341 32007 ft 492 kts 163°
2026-05-05 17:23 40.29279 19.90885 31346 ft 489 kts 165°
2026-05-05 17:23 40.26090 19.92379 30780 ft 485 kts 165°
2026-05-05 17:23 40.22932 19.93866 30212 ft 481 kts 165°
2026-05-05 17:24 40.19800 19.95340 29591 ft 476 kts 165°
2026-05-05 17:24 40.16692 19.96788 29012 ft 472 kts 165°
2026-05-05 17:24 40.13610 19.98209 28451 ft 467 kts 165°
2026-05-05 17:24 40.10556 19.99578 27899 ft 461 kts 167°
2026-05-05 17:25 40.07506 20.00785 27357 ft 456 kts 168°
2026-05-05 17:25 40.05489 20.01507 26992 ft 453 kts 169°
2026-05-05 17:25 40.01432 20.02856 26335 ft 447 kts 170°
2026-05-05 17:25 39.98423 20.03829 25859 ft 443 kts 170°
2026-05-05 17:26 39.95451 20.04807 25393 ft 439 kts 169°
2026-05-05 17:26 39.92508 20.05806 24910 ft 435 kts 168°
2026-05-05 17:26 39.89595 20.06822 24456 ft 432 kts 168°
2026-05-05 17:26 39.86706 20.07843 24004 ft 429 kts 168°
2026-05-05 17:27 39.83828 20.08865 23388 ft 429 kts 167°
2026-05-05 17:27 39.80990 20.09872 22731 ft 429 kts 167°
2026-05-05 17:27 39.78105 20.10892 22051 ft 429 kts 167°
2026-05-05 17:27 39.75220 20.11906 21352 ft 430 kts 167°
2026-05-05 17:28 39.72328 20.12917 20685 ft 431 kts 167°
2026-05-05 17:28 39.69443 20.13925 20199 ft 427 kts 167°
2026-05-05 17:28 39.66590 20.14922 19732 ft 423 kts 167°
2026-05-05 17:28 39.63761 20.15909 19265 ft 419 kts 167°
2026-05-05 17:29 39.60960 20.16885 18800 ft 415 kts 167°
2026-05-05 17:29 39.58180 20.17856 18332 ft 412 kts 167°
2026-05-05 17:29 39.55426 20.18817 17811 ft 408 kts 167°
2026-05-05 17:29 39.52691 20.19764 17291 ft 405 kts 167°
2026-05-05 17:30 39.49979 20.20700 16803 ft 401 kts 167°
2026-05-05 17:30 39.47296 20.21629 16322 ft 398 kts 166°
2026-05-05 17:30 39.44634 20.22554 15841 ft 394 kts 166°
2026-05-05 17:30 39.41997 20.23473 15378 ft 391 kts 166°
2026-05-05 17:31 39.39383 20.24379 14918 ft 387 kts 166°
2026-05-05 17:31 39.36789 20.25274 14446 ft 384 kts 166°
2026-05-05 17:31 39.34214 20.26161 13986 ft 381 kts 165°
2026-05-05 17:31 39.31666 20.27041 13472 ft 378 kts 165°
2026-05-05 17:32 39.29141 20.27911 12948 ft 372 kts 165°
2026-05-05 17:32 39.26670 20.28762 12176 ft 362 kts 165°
2026-05-05 17:32 39.24297 20.29610 11674 ft 346 kts 161°
2026-05-05 17:32 39.22182 20.30946 11079 ft 334 kts 145°
2026-05-05 17:33 39.20458 20.32879 10515 ft 324 kts 130°
2026-05-05 17:33 39.19056 20.35059 10160 ft 308 kts 129°
2026-05-05 17:33 39.17709 20.37143 9758 ft 299 kts 129°
2026-05-05 17:33 39.16378 20.39189 9371 ft 296 kts 129°
2026-05-05 17:34 39.15062 20.41212 8997 ft 294 kts 129°
2026-05-05 17:34 39.13754 20.43224 8630 ft 292 kts 129°
2026-05-05 17:34 39.12459 20.45215 8275 ft 289 kts 129°
2026-05-05 17:34 39.11224 20.47235 7920 ft 285 kts 120°
2026-05-05 17:35 39.10402 20.49537 7561 ft 282 kts 112°
2026-05-05 17:35 39.09661 20.51861 7191 ft 280 kts 112°
2026-05-05 17:35 39.08927 20.54170 6828 ft 278 kts 112°
2026-05-05 17:35 39.08200 20.56462 6463 ft 275 kts 112°
2026-05-05 17:36 39.07478 20.58733 6082 ft 273 kts 112°
2026-05-05 17:36 39.06767 20.60951 5705 ft 271 kts 112°
2026-05-05 17:36 39.06061 20.63149 5314 ft 260 kts 113°
2026-05-05 17:36 39.05386 20.65250 4947 ft 249 kts 113°
2026-05-05 17:37 39.04736 20.67277 4502 ft 243 kts 113°
2026-05-05 17:37 39.04092 20.69289 4097 ft 243 kts 112°
2026-05-05 17:37 39.03461 20.71264 3773 ft 234 kts 112°
2026-05-05 17:37 39.02850 20.73173 3468 ft 227 kts 112°
2026-05-05 17:38 39.02259 20.75014 3193 ft 219 kts 112°
2026-05-05 17:38 39.01695 20.76770 2938 ft 207 kts 112°
2026-05-05 17:38 39.01157 20.78446 2654 ft 200 kts 112°
2026-05-05 17:38 39.00631 20.80081 2403 ft 196 kts 113°
2026-05-05 17:39 39.00088 20.81661 2149 ft 191 kts 121°
2026-05-05 17:39 38.99186 20.82812 1901 ft 177 kts 151°
2026-05-05 17:39 38.98109 20.83382 1704 ft 159 kts 162°
2026-05-05 17:39 38.97103 20.83874 1488 ft 151 kts 162°
2026-05-05 17:40 38.96126 20.84337 1281 ft 148 kts 170°
2026-05-05 17:40 38.95184 20.84159 1081 ft 135 kts 218°
2026-05-05 17:40 38.94652 20.83219 932 ft 131 kts 251°
2026-05-05 17:40 38.94311 20.82118 746 ft 133 kts 251°
2026-05-05 17:41 38.93965 20.81019 593 ft 133 kts 250°
2026-05-05 17:41 38.93619 20.79921 384 ft 132 kts 250°
2026-05-05 17:41 38.93283 20.78830 222 ft 131 kts 250°
2026-05-05 17:41 38.92949 20.77742 31 ft 130 kts 249°
2026-05-05 17:42 38.92652 20.76797 19 ft 93 kts 248°
2026-05-05 17:42 38.92471 20.76219 20 ft 56 kts 248°
2026-05-05 17:42 38.92340 20.75802 20 ft 44 kts 248°
2026-05-05 17:42 38.92245 20.75501 22 ft 28 kts 248°
2026-05-05 17:43 38.92160 20.75392 21 ft 14 kts 165°
2026-05-05 17:43 38.92096 20.75459 21 ft 11 kts 99°
2026-05-05 17:43 38.92120 20.75567 21 ft 16 kts 67°
2026-05-05 17:43 38.92164 20.75705 21 ft 17 kts 68°
2026-05-05 17:44 38.92219 20.75875 19 ft 24 kts 68°
2026-05-05 17:44 38.92281 20.76080 19 ft 25 kts 69°
2026-05-05 17:44 38.92349 20.76298 18 ft 27 kts 68°
2026-05-05 17:44 38.92423 20.76529 18 ft 29 kts 68°
2026-05-05 17:45 38.92497 20.76762 22 ft 29 kts 68°
2026-05-05 17:45 38.92571 20.76995 19 ft 25 kts 68°
2026-05-05 17:45 38.92625 20.77150 18 ft 13 kts 47°
2026-05-05 17:45 38.92707 20.77142 17 ft 12 kts 339°
2026-05-05 17:46 38.92771 20.77178 17 ft 11 kts 63°
2026-05-05 17:46 38.92821 20.77232 17 ft 9 kts
2026-05-05 17:46 38.92883 20.77210 18 ft 11 kts 346°
2026-05-05 17:46 38.92934 20.77253 19 ft 9 kts 58°
2026-05-05 17:47 38.92980 20.77265 20 ft 6 kts 341°
2026-05-05 17:47 38.93016 20.77245 19 ft 4 kts 337°
2026-05-05 17:47 38.93025 20.77241 19 ft 0 kts 338°